Total_Precipitation_Accumulation
0.55 0.50 0.62 0.74 0.68 0.72 0.96 0.99 0.90 0.57 0.51 0.59 0.59 0.58 0.55 0.51 0.49 0.51 0.64 0.67 0.67 0.71 0.74 0.78 0.88 0.96 0.95 1.01 1.10 1.26 1.44 1.57 1.62 1.63 1.75 1.86 1.90 1.94 1.89 1.97 2.03 1.99 2.02 2.04
0.55 0.36 0.44 0.56 0.48 0.51 0.56 0.56 0.60 0.50 0.55 0.58 0.56 0.51 0.51 0.52 0.51 0.53 0.63 0.68 0.70 0.72 0.76 0.80 0.87 0.93 0.92 0.93 1.02 1.16 1.34 1.43 1.50 1.62 1.74 1.91 1.98 2.06 2.06 2.06 2.09 2.08 2.03 2.03
0.91 0.45 0.68 0.85 0.59 0.52 0.53 0.52 0.54 0.62 0.65 0.59 0.56 0.54 0.55 0.54 0.55 0.56 0.56 0.60 0.66 0.74 0.79 0.82 0.85 0.87 0.91 0.91 0.93 1.03 1.20 1.31 1.38 1.54 1.63 1.74 1.82 1.87 1.92 1.88 1.86 1.92 1.96 1.88
1.29 0.95 1.31 0.78 0.47 0.45 0.48 0.53 0.54 0.58 0.60 0.59 0.64 0.63 0.58 0.57 0.59 0.59 0.57 0.56 0.58 0.70 0.77 0.75 0.78 0.84 0.86 0.86 0.88 0.96 1.08 1.19 1.22 1.36 1.51 1.56 1.63 1.67 1.70 1.66 1.69 1.79 1.78 1.65
1.67 1.25 0.77 0.42 0.36 0.49 0.58 0.66 0.58 0.54 0.53 0.52 0.54 0.57 0.60 0.59 0.57 0.60 0.58 0.56 0.58 0.66 0.71 0.71 0.75 0.81 0.80 0.81 0.82 0.89 0.99 1.06 1.08 1.16 1.34 1.38 1.47 1.56 1.55 1.57 1.59 1.60 1.58 1.51
1.79 1.39 0.76 0.43 0.28 0.35 0.52 0.76 0.54 0.48 0.52 0.54 0.56 0.75 0.73 0.66 0.62 0.61 0.57 0.56 0.60 0.65 0.64 0.67 0.72 0.74 0.73 0.74 0.78 0.85 0.91 0.99 1.00 1.03 1.15 1.18 1.23 1.33 1.37 1.39 1.47 1.52 1.51 1.45
1.48 1.19 0.58 0.37 0.29 0.32 0.79 0.94 0.52 0.49 0.55 0.59 0.70 0.82 0.75 0.69 0.66 0.63 0.62 0.61 0.61 0.62 0.65 0.69 0.73 0.74 0.74 0.74 0.76 0.80 0.84 0.88 0.93 0.98 1.06 1.08 1.11 1.17 1.25 1.32 1.38 1.44 1.48 1.43
1.10 1.24 0.70 0.36 0.37 0.65 0.81 0.51 0.45 0.47 0.50 0.56 0.57 0.55 0.56 0.60 0.60 0.59 0.61 0.61 0.61 0.63 0.68 0.70 0.70 0.69 0.68 0.75 0.75 0.76 0.81 0.88 0.92 0.96 0.99 1.01 1.06 1.14 1.16 1.27 1.40 1.42 1.39 1.39
0.84 0.78 0.57 0.45 0.54 0.58 0.48 0.42 0.39 0.42 0.46 0.49 0.52 0.51 0.55 0.56 0.57 0.57 0.58 0.59 0.59 0.63 0.68 0.68 0.68 0.67 0.67 0.73 0.73 0.75 0.79 0.84 0.92 0.98 0.99 1.04 1.07 1.13 1.19 1.29 1.42 1.43 1.36 1.33
0.57 0.46 0.40 0.40 0.40 0.41 0.39 0.40 0.38 0.40 0.45 0.46 0.50 0.51 0.54 0.53 0.55 0.55 0.54 0.54 0.53 0.58 0.63 0.66 0.68 0.69 0.70 0.72 0.74 0.77 0.80 0.81 0.86 0.97 1.04 1.05 1.08 1.13 1.17 1.24 1.40 1.46 1.42 1.38
0.50 0.36 0.31 0.30 0.31 0.35 0.38 0.36 0.35 0.36 0.39 0.42 0.43 0.45 0.48 0.52 0.53 0.54 0.54 0.53 0.51 0.54 0.61 0.66 0.68 0.69 0.72 0.77 0.81 0.83 0.80 0.79 0.83 0.93 1.01 1.04 1.09 1.14 1.19 1.20 1.41 1.59 1.49 1.48
0.50 0.34 0.38 0.34 0.29 0.30 0.34 0.34 0.32 0.34 0.36 0.35 0.37 0.42 0.43 0.46 0.49 0.50 0.51 0.52 0.52 0.52 0.58 0.64 0.67 0.70 0.75 0.83 0.87 0.87 0.85 0.85 0.87 0.94 0.97 0.99 1.04 1.12 1.22 1.24 1.32 1.32 1.36 1.45
0.37 0.31 0.31 0.29 0.24 0.24 0.29 0.30 0.29 0.31 0.36 0.38 0.35 0.38 0.43 0.46 0.46 0.47 0.47 0.49 0.53 0.55 0.58 0.61 0.64 0.68 0.76 0.86 0.90 0.89 0.91 0.93 0.94 0.95 0.96 0.99 0.97 1.01 1.13 1.16 1.19 1.20 1.23 1.30
0.27 0.27 0.27 0.21 0.21 0.20 0.23 0.25 0.25 0.25 0.28 0.33 0.37 0.37 0.41 0.44 0.42 0.43 0.45 0.47 0.48 0.52 0.56 0.57 0.60 0.66 0.75 0.87 0.94 0.95 0.95 1.01 1.03 1.00 0.98 1.00 0.97 0.95 1.01 1.12 1.24 1.29 1.31 1.35
0.22 0.23 0.24 0.20 0.17 0.16 0.18 0.20 0.22 0.24 0.25 0.28 0.33 0.37 0.41 0.44 0.43 0.42 0.43 0.44 0.43 0.46 0.51 0.54 0.58 0.66 0.74 0.84 0.93 0.99 1.04 1.05 1.07 1.07 1.04 1.01 1.00 1.00 1.01 1.05 1.15 1.29 1.38 1.47
0.24 0.21 0.19 0.18 0.17 0.17 0.18 0.21 0.25 0.27 0.28 0.30 0.32 0.35 0.41 0.46 0.46 0.44 0.43 0.44 0.46 0.47 0.51 0.55 0.60 0.68 0.76 0.85 0.94 1.03 1.12 1.20 1.19 1.14 1.12 1.08 1.06 1.07 1.09 1.12 1.16 1.22 1.33 1.43
0.32 0.27 0.23 0.21 0.19 0.19 0.22 0.26 0.30 0.31 0.30 0.32 0.34 0.36 0.39 0.42 0.43 0.43 0.43 0.44 0.48 0.51 0.52 0.56 0.65 0.70 0.75 0.84 0.95 1.07 1.16 1.21 1.23 1.18 1.15 1.15 1.16 1.17 1.18 1.21 1.24 1.23 1.25 1.36
0.31 0.31 0.29 0.29 0.28 0.25 0.23 0.24 0.26 0.28 0.31 0.34 0.35 0.36 0.38 0.43 0.47 0.49 0.48 0.46 0.45 0.45 0.49 0.56 0.67 0.72 0.75 0.83 0.96 1.06 1.14 1.16 1.13 1.14 1.17 1.22 1.26 1.25 1.26 1.26 1.24 1.26 1.29 1.34
0.24 0.25 0.24 0.24 0.25 0.26 0.26 0.26 0.27 0.28 0.29 0.32 0.34 0.36 0.40 0.46 0.51 0.54 0.51 0.48 0.47 0.49 0.55 0.61 0.70 0.70 0.76 0.89 1.00 1.06 1.12 1.15 1.13 1.14 1.17 1.26 1.26 1.20 1.22 1.24 1.27 1.28 1.27 1.29
0.22 0.23 0.24 0.23 0.22 0.25 0.27 0.26 0.26 0.26 0.28 0.31 0.33 0.35 0.38 0.44 0.50 0.54 0.52 0.51 0.55 0.62 0.63 0.68 0.66 0.68 0.78 0.93 1.06 1.08 1.10 1.11 1.12 1.16 1.19 1.20 1.20 1.21 1.21 1.21 1.28 1.34 1.32 1.30
0.24 0.24 0.25 0.25 0.24 0.23 0.25 0.27 0.28 0.29 0.31 0.34 0.39 0.42 0.45 0.48 0.51 0.54 0.54 0.54 0.56 0.59 0.62 0.65 0.67 0.77 0.88 1.03 1.07 1.04 1.06 1.09 1.12 1.19 1.24 1.24 1.24 1.23 1.22 1.23 1.28 1.33 1.33 1.31
0.28 0.29 0.29 0.29 0.28 0.27 0.28 0.30 0.32 0.33 0.34 0.37 0.41 0.46 0.48 0.51 0.53 0.54 0.55 0.61 0.65 0.69 0.65 0.61 0.70 0.88 1.03 1.06 0.98 0.98 1.01 1.05 1.12 1.20 1.27 1.26 1.27 1.27 1.23 1.23 1.30 1.30 1.28 1.28
0.33 0.34 0.36 0.37 0.39 0.39 0.36 0.37 0.39 0.40 0.43 0.45 0.48 0.52 0.54 0.57 0.59 0.61 0.62 0.62 0.65 0.69 0.67 0.68 0.77 0.91 0.99 0.93 0.89 0.92 0.96 1.01 1.10 1.21 1.27 1.30 1.31 1.30 1.29 1.28 1.31 1.32 1.32 1.29
0.36 0.38 0.41 0.43 0.42 0.40 0.41 0.42 0.43 0.46 0.49 0.52 0.55 0.58 0.59 0.58 0.57 0.59 0.63 0.65 0.67 0.69 0.68 0.73 0.80 0.88 0.91 0.85 0.84 0.89 0.95 1.02 1.12 1.23 1.28 1.31 1.32 1.31 1.32 1.35 1.40 1.36 1.31 1.26
0.40 0.41 0.41 0.42 0.45 0.46 0.46 0.44 0.41 0.43 0.45 0.48 0.51 0.53 0.55 0.60 0.68 0.67 0.63 0.63 0.66 0.68 0.67 0.72 0.78 0.83 0.82 0.81 0.83 0.91 0.99 1.10 1.26 1.39 1.41 1.38 1.34 1.33 1.32 1.37 1.42 1.39 1.33 1.28
0.47 0.48 0.49 0.51 0.54 0.54 0.53 0.50 0.49 0.49 0.50 0.50 0.49 0.50 0.53 0.59 0.65 0.68 0.66 0.64 0.65 0.69 0.71 0.74 0.77 0.80 0.80 0.82 0.87 0.94 1.01 1.11 1.25 1.34 1.32 1.31 1.31 1.32 1.33 1.36 1.36 1.35 1.32 1.29
0.51 0.50 0.50 0.51 0.52 0.55 0.59 0.61 0.62 0.62 0.63 0.63 0.61 0.57 0.58 0.62 0.65 0.66 0.64 0.63 0.65 0.67 0.71 0.77 0.80 0.80 0.82 0.86 0.92 0.97 1.01 1.07 1.21 1.34 1.34 1.31 1.32 1.34 1.32 1.32 1.33 1.33 1.32 1.30